RH
82 87 86 80 77 76 75 78 83 84 85 85 83 82 82 85 91 89 84 86 91 92 93 91 85 82 85 90 89 85 87 92 93 93 93 89 85 79 75 73 72 73
80 84 85 80 75 75 74 74 76 77 82 89 88 85 84 88 93 93 91 91 92 93 95 96 93 90 92 95 94 93 95 93 88 91 93 90 87 82 76 73 72 73
76 78 83 81 74 74 75 75 78 77 79 88 94 94 93 93 94 95 96 94 90 90 92 95 97 97 96 95 94 95 95 87 80 85 92 91 89 86 80 76 72 70
78 78 82 82 76 76 77 77 79 80 81 87 94 96 91 86 87 92 95 95 94 94 94 96 97 96 96 97 98 97 94 87 81 80 84 87 88 87 83 79 75 71
81 80 83 84 78 78 80 79 79 81 82 85 89 92 88 81 80 81 84 92 99 100 97 96 97 96 95 97 98 97 95 91 88 85 79 78 82 86 85 81 79 76
77 80 85 86 81 79 80 79 81 83 84 86 86 89 88 82 79 77 76 85 95 96 93 92 94 95 92 93 97 97 96 94 94 95 90 82 81 85 85 82 81 81
81 86 89 86 81 79 81 81 82 83 84 86 86 86 85 79 78 77 73 80 92 95 91 89 93 97 92 92 96 97 98 98 96 96 92 87 86 86 84 82 83 85
87 89 87 83 81 80 81 80 79 80 82 82 81 81 82 78 75 73 72 82 96 98 93 92 95 97 92 91 94 94 95 95 95 94 89 87 87 85 84 84 85 87
84 86 85 83 83 81 81 79 78 79 80 80 76 75 80 79 76 78 82 89 97 98 96 97 98 97 93 91 91 92 94 91 92 96 94 91 89 85 85 87 87 87
82 84 83 83 84 81 80 81 82 82 80 79 76 75 80 79 78 86 92 95 98 98 98 98 99 99 97 93 87 88 94 93 91 96 97 96 94 90 89 90 89 88
82 82 82 83 85 83 82 84 85 83 79 78 76 78 80 79 82 91 93 93 98 99 97 98 99 99 98 97 91 88 92 93 92 94 97 97 96 94 94 92 91 90
81 83 85 84 84 85 87 87 86 83 80 81 81 81 81 81 90 98 94 93 98 98 96 98 99 100 100 99 96 92 92 93 92 94 97 97 93 93 94 93 91 93
81 84 85 84 86 89 90 87 86 85 85 87 88 87 87 87 91 96 95 97 101 98 98 99 99 100 99 96 96 97 96 95 94 95 96 96 94 93 95 94 91 93
82 84 84 86 89 90 90 88 89 90 87 87 88 89 89 86 87 93 97 99 100 98 99 101 99 100 99 96 96 98 98 97 96 97 95 94 94 93 93 94 94 90
85 87 88 90 91 90 88 89 92 92 88 87 88 87 86 84 87 95 99 100 100 99 100 99 98 98 96 95 96 96 97 98 97 97 96 94 94 94 93 94 97 95
88 90 89 91 92 91 88 87 90 91 89 88 87 87 88 88 89 90 92 96 99 99 100 100 100 97 91 89 91 91 91 92 92 95 98 97 95 95 94 94 96 100
85 88 89 89 89 89 87 86 87 88 88 86 86 88 89 89 88 87 91 97 99 99 100 99 97 95 92 91 91 91 91 91 91 95 97 95 92 91 91 91 93 97
80 83 87 88 87 86 87 88 88 90 91 90 91 94 93 91 90 91 94 97 97 97 98 98 96 94 95 95 94 92 90 89 93 97 96 91 90 90 91 91 94 95
77 80 83 85 85 84 85 89 90 91 94 95 96 97 97 96 96 97 96 94 94 94 93 96 97 96 97 96 93 91 89 87 91 98 98 92 90 90 91 90 91 92
78 83 84 84 85 86 88 91 91 94 97 98 99 99 99 100 98 95 95 95 95 94 93 96 98 98 99 97 92 89 89 86 86 91 95 94 91 93 94 92 90 88
81 85 87 88 89 91 92 92 92 96 97 96 97 98 97 97 94 90 91 93 94 95 96 98 97 96 97 95 89 86 86 85 84 86 89 91 92 95 97 95 93 92
85 86 87 88 88 88 89 90 90 91 92 95 98 98 96 96 94 92 91 90 90 91 92 93 93 91 89 84 77 73 74 80 87 89 89 89 91 91 89 88 88 87
86 86 88 89 87 88 91 92 89 87 90 96 99 98 98 97 96 96 96 93 91 88 86 88 89 89 87 80 71 68 71 79 90 96 96 95 94 89 81 79 78 76
84 85 90 91 90 91 92 90 90 91 93 95 96 96 97 98 99 99 99 98 96 91 89 90 90 90 88 80 69 66 68 75 84 91 93 94 95 91 85 84 84 78
84 86 89 90 91 91 88 88 92 96 94 92 94 96 97 99 100 99 99 100 100 97 94 92 92 89 81 68 59 56 58 62 71 80 87 92 94 92 91 91 93 88
85 86 87 88 88 88 88 91 97 100 98 96 97 99 99 99 100 99 99 99 98 97 95 93 93 90 76 60 52 50 51 53 61 72 83 92 95 96 96 93 93 92
Wind_Speed
23 22 21 19 17 17 17 17 15 14 13 11 11 10 10 11 11 12 12 12 13 13 13 15 17 17 16 15 16 17 15 15 15 14 13 13 13 13 13 12 12 12
22 22 21 19 18 18 18 18 18 17 15 14 13 11 11 11 11 12 12 13 13 13 13 14 15 16 16 15 16 16 15 16 17 15 14 14 13 13 13 13 13 13
20 20 21 20 18 18 19 19 18 18 17 16 14 13 13 11 11 11 13 14 14 13 13 14 14 15 15 15 17 16 16 18 18 16 15 15 14 14 14 13 13 13
19 19 20 20 18 17 18 19 19 18 18 18 17 16 17 16 14 13 13 14 15 14 14 14 14 15 14 15 16 16 17 18 19 18 17 16 16 15 15 14 14 13
17 18 19 19 18 17 17 18 20 20 19 19 19 18 19 19 19 17 15 13 14 14 14 14 15 15 15 16 16 16 16 17 17 17 18 18 18 16 15 15 14 14
16 18 19 18 18 17 16 17 18 19 19 20 19 19 20 19 19 18 16 14 13 13 13 14 15 15 15 15 16 16 16 15 15 16 18 19 18 17 16 15 15 15
17 18 18 17 17 16 16 16 17 18 19 19 20 21 21 20 19 17 16 14 14 14 14 14 15 16 15 15 15 15 15 16 16 17 18 19 18 17 17 16 15 15
18 18 17 16 16 16 15 16 17 17 18 18 19 21 21 21 20 17 14 13 14 15 15 15 16 16 15 14 14 14 14 14 14 16 17 18 17 17 17 17 16 16
18 17 16 16 15 16 16 16 16 17 17 17 18 19 20 21 20 15 12 13 15 15 14 15 15 15 14 14 14 14 14 13 12 13 15 16 17 17 17 17 17 17
16 15 15 15 15 16 16 16 16 16 16 16 16 17 19 20 18 14 12 14 16 15 15 15 15 14 14 14 13 12 13 13 12 12 13 14 15 16 15 15 16 16
14 14 14 14 15 16 16 16 15 15 15 15 15 15 17 18 16 14 14 15 15 15 14 14 15 15 14 14 14 13 13 13 12 12 13 13 14 14 14 14 14 15
13 12 13 14 14 14 14 15 14 14 14 13 12 13 16 16 14 13 14 15 15 15 14 15 15 15 15 15 14 13 14 14 13 12 13 14 14 14 14 14 14 14
12 11 11 12 11 11 12 12 12 12 11 11 11 12 14 15 14 14 14 14 14 14 14 15 15 16 16 17 16 14 14 14 13 13 13 13 14 14 14 15 15 15
9 8 7 8 9 9 9 9 9 9 9 11 12 12 12 13 13 13 13 14 14 14 14 15 15 15 16 16 15 14 13 13 13 13 13 13 13 14 14 15 16 17
6 5 6 7 8 9 8 8 8 8 8 9 10 10 10 12 13 13 13 13 14 14 14 13 13 14 15 15 14 13 12 13 13 13 13 13 13 13 14 14 15 17
5 5 6 7 8 8 8 9 8 8 9 10 10 10 11 12 13 13 13 13 13 13 13 12 13 15 17 17 15 14 14 13 13 12 13 14 14 14 14 14 14 14
6 6 7 7 8 8 9 9 10 10 10 10 10 10 11 12 12 13 12 11 11 12 11 12 15 17 17 16 15 15 15 14 13 13 15 16 16 15 14 14 14 15
7 7 7 7 7 8 9 9 10 10 9 9 8 8 8 9 9 10 10 9 10 11 11 12 16 17 16 17 16 15 16 15 13 13 16 17 16 15 15 14 14 14
7 8 8 8 7 8 9 9 9 9 8 8 7 7 7 7 7 7 8 9 9 11 11 12 16 17 16 17 17 15 15 15 13 13 15 16 17 17 16 15 16 17
9 9 9 9 9 9 9 9 9 9 9 8 6 6 6 7 7 8 9 10 11 11 10 12 16 16 16 17 17 16 15 14 13 13 13 15 15 15 16 17 18 19
10 9 9 9 10 9 8 8 8 8 8 7 6 6 6 7 8 8 9 10 10 11 11 13 18 19 18 19 19 18 17 15 13 13 13 13 12 12 13 15 15 15
10 10 10 10 10 9 8 8 8 8 7 6 6 6 5 6 6 7 8 8 9 10 10 13 19 21 21 23 23 21 19 16 13 13 14 14 13 13 14 14 14 15
11 10 10 11 10 9 8 8 8 8 7 6 5 5 5 5 5 5 6 6 8 9 8 10 17 21 20 21 22 21 19 17 14 12 12 12 12 14 16 16 16 17
11 11 11 11 10 9 8 8 8 7 6 5 4 4 5 5 4 4 4 4 6 8 9 11 16 19 18 18 18 18 18 18 15 12 11 11 11 12 13 13 14 16
11 11 11 10 9 9 8 8 7 6 5 4 4 5 5 6 5 4 4 4 5 7 10 12 15 17 17 17 17 16 16 16 15 13 12 11 11 11 11 11 12 14
10 10 10 9 8 8 8 7 6 4 4 4 4 4 5 6 5 5 5 6 6 6 7 9 10 12 14 15 14 14 14 14 13 13 11 10 10 10 10 10 11 12
Wind_Direction
241 244 239 232 231 231 232 233 229 229 229 231 238 238 235 234 232 232 228 229 238 240 241 248 250 248 248 252 258 259 253 249 251 251 249 248 248 247 245 245 245 247
244 252 251 243 239 238 239 238 235 233 229 230 237 235 231 235 237 240 236 232 236 240 244 248 251 251 250 251 254 256 254 252 251 250 248 248 247 245 244 242 243 245
245 251 254 250 243 241 241 240 240 241 233 228 232 232 228 229 234 241 242 241 240 240 245 248 248 251 252 251 253 253 252 255 255 251 247 245 244 243 242 241 241 243
247 250 253 253 248 244 243 240 239 242 237 232 234 237 236 232 231 234 240 247 246 240 243 248 247 248 250 251 253 255 255 256 255 252 247 244 243 241 239 240 240 239
245 249 250 252 250 246 243 240 237 238 239 238 238 240 242 240 239 240 240 245 250 248 247 249 250 251 252 252 252 254 256 255 255 254 250 245 242 241 239 238 239 238
242 245 247 249 249 246 243 240 238 238 239 239 237 238 239 239 241 244 243 241 245 251 252 252 253 252 251 253 252 252 251 250 249 250 250 247 241 237 236 237 237 237
239 241 243 246 247 247 245 242 241 239 240 239 238 236 236 237 238 239 242 245 247 249 250 252 252 249 247 247 248 251 251 250 249 247 247 247 242 235 232 233 234 236
238 238 241 244 245 247 248 248 247 244 243 242 241 238 236 237 237 235 238 246 250 251 251 251 252 253 253 246 243 247 249 250 253 252 250 247 242 237 233 232 233 237
237 237 241 244 245 247 250 251 251 247 245 244 243 239 234 233 233 231 234 242 245 248 249 249 250 254 257 251 245 245 247 248 250 254 252 246 242 239 236 234 236 239
237 239 243 247 250 252 252 252 252 248 244 245 243 236 229 229 230 226 227 239 244 244 246 249 250 251 255 256 253 249 250 250 250 253 253 248 244 241 240 239 240 242
239 245 249 252 255 255 251 248 247 244 242 243 241 233 225 226 230 227 227 237 244 245 246 249 251 252 256 260 258 253 253 251 248 251 253 251 249 245 243 244 244 246
245 253 255 253 253 253 247 240 239 239 238 236 235 231 226 226 228 230 233 238 241 244 247 248 249 251 254 259 258 255 256 255 251 251 252 252 252 249 246 244 243 245
253 255 252 247 241 237 233 230 231 234 230 224 223 226 227 228 228 231 236 239 241 245 248 248 248 249 255 260 260 253 252 255 253 251 253 254 254 251 249 246 243 241
258 256 244 232 223 218 218 218 220 226 222 215 216 221 226 230 233 234 236 239 241 244 246 247 249 252 259 265 264 257 252 253 254 254 255 255 254 253 251 251 252 250
241 236 223 215 213 212 212 211 207 214 219 216 218 224 227 230 231 230 232 236 240 242 243 246 251 253 254 255 256 254 249 249 250 252 255 254 252 253 253 251 254 259
211 209 202 200 203 203 205 207 205 211 218 218 220 224 225 228 230 231 232 236 240 243 243 244 246 246 247 248 249 249 249 249 248 248 252 254 253 253 254 254 254 258
195 193 189 189 193 198 203 207 208 212 216 215 215 220 223 227 231 231 233 235 239 242 243 246 245 244 246 250 250 248 248 248 249 252 254 255 256 254 253 255 257 256
189 187 188 189 190 195 198 200 200 200 202 202 202 209 217 223 229 231 231 233 237 236 232 240 247 247 246 249 250 249 247 246 251 256 257 257 256 254 249 246 249 254
190 190 189 187 189 193 191 190 189 190 196 200 202 209 213 220 229 234 234 230 232 233 229 236 249 251 247 247 248 249 249 248 252 258 259 259 258 258 257 252 249 250
191 192 190 185 187 193 193 194 198 204 210 211 214 225 231 237 244 245 245 241 237 237 236 241 246 245 244 245 245 246 248 248 251 257 261 262 260 259 264 264 259 254
192 192 193 192 193 197 198 203 211 219 224 225 230 239 244 250 250 246 248 249 245 241 240 246 249 246 245 249 249 247 247 245 247 253 260 264 264 260 262 266 265 262
192 192 196 198 200 200 203 212 223 231 237 239 240 242 243 246 248 246 246 246 247 245 242 250 258 256 252 254 255 253 252 253 253 254 255 257 260 259 259 264 267 269
188 191 196 200 202 201 204 215 228 236 239 242 242 241 241 241 238 241 242 235 235 240 234 243 259 263 260 258 257 255 255 257 258 258 257 258 259 258 257 257 256 257
184 187 194 199 202 204 208 216 225 230 232 235 235 230 233 236 234 236 243 229 221 226 223 228 250 264 267 264 261 256 254 255 257 258 260 263 264 263 261 260 256 253
183 186 193 197 199 201 207 216 224 225 224 225 224 221 225 232 235 236 239 232 222 227 227 228 244 262 270 268 268 266 262 260 260 262 264 266 267 267 265 263 260 258
182 187 193 194 196 203 212 217 219 221 222 220 219 221 225 232 235 227 226 228 226 232 237 235 244 262 270 267 266 266 266 266 266 267 268 268 268 269 269 269 267 269